EST,Max TemperatureF,Mean TemperatureF,Min TemperatureF,Max Dew PointF,MeanDew PointF,Min DewpointF,Max Humidity, Mean Humidity, Min Humidity, Max Sea Level PressureIn, Mean Sea Level PressureIn, Min Sea Level PressureIn, Max VisibilityMiles, Mean VisibilityMiles, Min VisibilityMiles, Max Wind SpeedMPH, Mean Wind SpeedMPH, Max Gust SpeedMPH,PrecipitationIn, CloudCover, Events, WindDirDegrees
2013-2-1,34,28,21,15,6,2,54,39,28,30.05,29.78,29.57,10,10,10,18,12,34,0.00,2,,283
2013-2-2,42,30,17,9,4,0,56,39,26,30.22,30.12,30.04,10,10,10,14,7,17,0.00,3,,250
2013-2-3,39,32,25,19,18,11,75,60,32,30.03,29.87,29.70,10,7,2,12,6,,0.00,8,Snow,336
2013-2-4,39,30,21,18,7,2,58,39,28,29.91,29.77,29.69,10,10,10,24,9,38,0.00,2,,275
2013-2-5,36,28,21,23,13,3,86,58,27,30.02,29.96,29.93,10,8,2,9,5,,0.00,7,Snow,241
2013-2-6,39,31,23,23,19,5,88,72,36,30.27,29.99,29.91,10,6,1,15,4,25,0.03,6,Snow,301
2013-2-7,28,22,17,13,-1,-9,58,36,21,30.52,30.46,30.29,10,10,10,14,7,21,0.00,3,,344
2013-2-8,33,26,19,29,24,14,93,82,59,30.48,30.11,29.60,10,3,0,28,10,46,0.56,8,Fog-Snow,67
2013-2-9,21,18,15,16,11,1,84,73,52,30.15,29.77,29.55,10,2,0,25,19,37,0.21,5,Fog-Snow,334
2013-2-10,37,24,10,8,0,-6,70,40,20,30.38,30.31,30.17,10,10,8,15,8,22,0.00,0,Snow,305
2013-2-11,41,28,15,40,29,6,100,85,58,30.33,29.89,29.59,10,4,0,15,5,22,0.23,6,Fog-Rain-Snow,162
2013-2-12,44,40,35,34,28,24,93,66,47,29.84,29.67,29.57,10,8,2,22,10,32,0.00,5,,270
2013-2-13,41,34,28,25,22,19,79,61,45,29.85,29.78,29.69,10,10,10,12,6,,0.00,2,,279
2013-2-14,41,36,30,25,21,17,75,57,38,29.98,29.86,29.70,10,10,10,10,4,,0.00,3,,354
2013-2-15,48,39,30,33,29,21,89,69,48,29.99,29.94,29.89,10,8,4,16,6,21,0.00,1,,190
2013-2-16,39,34,28,30,27,18,96,76,52,29.94,29.87,29.70,10,6,1,14,5,22,0.01,8,Snow,347
2013-2-17,32,26,19,18,9,-1,81,61,38,29.67,29.43,29.33,10,3,0,28,19,43,0.01,8,Snow,313
2013-2-18,30,22,15,0,-2,-6,49,35,21,30.13,29.92,29.64,10,10,6,24,18,40,0.00,1,,285
2013-2-19,46,34,23,40,25,1,97,67,36,30.14,29.85,29.56,10,7,0,14,7,,0.37,5,Fog-Rain,179
2013-2-20,41,34,27,39,21,10,93,62,40,29.74,29.61,29.51,10,9,2,20,10,34,0.00,6,,267
2013-2-21,30,28,25,14,11,7,60,51,43,30.14,29.86,29.74,10,10,10,21,13,32,0.00,2,,302
2013-2-22,37,30,24,24,19,14,73,61,48,30.37,30.32,30.20,10,10,10,14,9,21,0.00,2,,9
2013-2-23,37,34,30,34,28,24,93,77,68,30.32,30.15,29.93,10,9,2,14,4,20,0.17,8,Rain-Snow,125
2013-2-24,39,34,30,36,31,28,93,90,85,29.93,29.79,29.68,10,3,1,17,9,28,0.51,8,Rain-Snow,18
2013-2-25,39,34,30,29,27,24,93,78,57,30.23,30.05,29.88,10,9,3,8,6,34,0.01,6,Snow,348
2013-2-26,41,34,27,32,27,25,92,74,55,30.33,30.28,30.16,10,9,5,13,3,,0.00,4,,103
2013-2-27,41,39,37,39,36,29,97,88,70,30.14,29.79,29.53,10,4,1,24,13,34,1.47,8,Rain,64
2013-2-28,46,40,33,37,33,30,93,83,61,29.63,29.56,29.51,10,9,2,8,5,,0.01,7,Rain,311